[[{"header":{"parameterUnit":"m.s-1","parameterCategory":2,"la1":30.2991,"la2":30.254,"lo1":-89.0895,"lo2":-89.0444,"dy":0.0017,"dx":0.0017,"nx":28,"ny":28,"refTime":"2025-12-17T03:00:00:Z","depth":"0","parameterNumber":2,"parameterNumberName":"U-component_of_CURRENTS"},"data":[0,0,0,0,0,0,0,0,0,0,0,0,0,0,0,0,0,0,0,0,0,0,0,0,0,0,0,0,0,0,0,0,0,0,0,0,0,0,0,0,0,0,0,0,0,0,0,0,0,0,0,0,0,0,0,0,0,0,-0.2583,-0.2584,0,-0.2647,-0.2647,-0.2648,-0.2613,-0.2612,-0.261,-0.2609,-0.2617,-0.2618,-0.262,0,0,0,0,0,0,0,0,0,0,0,0,0,-0.2437,-0.2439,-0.2583,-0.2584,-0.2585,-0.2647,-0.2647,-0.2648,-0.2614,-0.2612,-0.261,-0.2608,-0.2616,-0.2618,-0.262,0,0,0,0,0,0,0,0,0,0,0,0,0,-0.2497,-0.244,-0.2583,-0.2578,-0.2578,-0.2647,-0.2647,-0.2648,-0.2614,-0.2612,-0.261,-0.2608,-0.2616,-0.2618,-0.262,-0.2677,0,0,-0.2627,-0.2628,0,0,0,0,0,0,0,0,-0.2494,-0.2502,-0.2578,-0.2579,-0.2579,-0.2623,-0.2599,-0.2656,-0.2614,-0.2597,-0.2609,-0.2607,-0.2617,-0.2619,-0.2632,-0.2677,-0.2678,-0.2627,-0.2629,-0.263,-0.263,0,0,0,0,0,0,0,-0.249,-0.2499,-0.2605,-0.2579,-0.258,-0.2575,-0.2581,-0.2609,-0.2615,-0.2598,-0.2597,-0.261,-0.2617,-0.263,-0.2632,-0.2678,-0.2627,-0.2629,-0.2631,-0.2632,-0.2706,-0.2707,0,0,0,0,0,0,-0.2492,-0.2496,-0.2603,-0.2607,-0.2534,-0.2579,-0.2586,-0.2608,-0.2616,-0.2616,-0.2612,-0.2608,-0.2627,-0.2629,-0.2632,-0.2672,-0.263,-0.2632,-0.2633,-0.2706,-0.2706,-0.2707,0,0,0,0,0,0,-0.2488,-0.2501,-0.26,-0.2554,-0.2567,-0.2584,-0.261,-0.2611,-0.2616,-0.2627,-0.2625,-0.2616,-0.2626,-0.2629,-0.2652,-0.2673,-0.2633,-0.2635,-0.2705,-0.2706,-0.2707,-0.277,0,0,0,0,0,0,-0.2484,-0.25,-0.2514,-0.2555,-0.257,-0.2643,-0.2612,-0.2614,-0.263,-0.2626,-0.2631,-0.2629,-0.2624,-0.2649,-0.2654,-0.2675,-0.2637,-0.2704,-0.2705,-0.2706,-0.2768,-0.2773,-0.2778,0,0,0,0,0,-0.2479,-0.2507,-0.2515,-0.2527,-0.2591,-0.2645,-0.2652,-0.2653,-0.2632,-0.2647,-0.2643,-0.2629,-0.2659,-0.2652,-0.2658,-0.268,-0.2703,-0.2705,-0.2706,-0.2765,-0.2772,-0.2778,0,0,0,0,0,0,-0.2445,-0.2509,-0.2516,-0.2561,-0.2601,-0.264,-0.2655,-0.2659,-0.267,-0.2657,-0.2652,-0.2652,-0.2678,-0.2671,-0.2664,-0.2701,-0.2674,-0.2677,-0.2716,-0.2723,-0.2728,-0.2725,-0.2639,0,0,0,0,0,-0.245,-0.2487,-0.2544,-0.2577,-0.2599,-0.2628,-0.2647,-0.2655,-0.2674,-0.2676,-0.2683,-0.2682,-0.2694,-0.27,-0.2711,-0.2746,-0.2728,-0.2757,-0.2762,-0.2767,-0.2767,-0.2777,-0.2783,-0.2711,-0.2711,-0.2711,0,0,-0.2447,-0.2485,-0.2506,-0.2572,-0.2599,-0.2647,-0.2633,-0.2669,-0.27,-0.2678,-0.2712,-0.271,-0.2707,-0.2737,-0.2747,-0.2732,-0.2774,-0.2769,-0.2773,-0.277,-0.2779,-0.2786,-0.2792,-0.2712,-0.2712,-0.2712,0,0,-0.2465,-0.2493,-0.2535,-0.2577,-0.263,-0.2655,-0.2668,-0.2715,-0.2722,-0.2767,-0.2746,-0.2756,-0.2787,-0.2785,-0.2787,-0.2832,-0.2804,-0.2829,-0.2859,-0.2869,-0.2875,-0.288,-0.2849,-0.2852,-0.2831,-0.2831,-0.2831,0,-0.2453,-0.2518,-0.2553,-0.2606,-0.2638,-0.2661,-0.2709,-0.2736,-0.2781,-0.2794,-0.278,-0.2816,-0.281,-0.284,-0.2843,-0.2846,-0.2831,-0.2838,-0.2877,-0.2882,-0.2887,-0.2854,-0.2855,-0.2834,-0.2834,-0.2833,-0.2833,0,-0.2511,-0.2561,-0.2587,-0.2662,-0.2702,-0.2744,-0.2793,-0.2823,-0.2832,-0.2856,-0.289,-0.289,-0.2902,-0.2904,-0.2887,-0.2915,-0.2886,-0.2887,-0.2864,-0.2898,-0.286,-0.2861,-0.2839,-0.2837,-0.2836,-0.2836,0,0,-0.2475,-0.2604,-0.2609,-0.2651,-0.2731,-0.2767,-0.2824,-0.2881,-0.291,-0.2943,-0.2979,-0.2991,-0.2978,-0.2978,-0.2962,-0.2967,-0.2974,-0.2937,-0.2936,-0.2911,-0.2967,-0.2877,-0.2868,-0.2987,-0.2988,-0.2988,-0.2923,0,-0.2501,-0.2604,-0.2663,-0.2743,-0.2793,-0.284,-0.2895,-0.2944,-0.2973,-0.3016,-0.3017,-0.3043,-0.3011,-0.3012,-0.3016,-0.2985,-0.298,-0.2989,-0.2933,-0.2931,-0.2851,-0.2868,-0.2738,-0.2663,-0.2923,-0.2923,-0.2923,0,-0.2525,-0.2593,-0.268,-0.2786,-0.2812,-0.286,-0.293,-0.2987,-0.305,-0.3071,-0.3096,-0.3099,-0.31,-0.3076,-0.3043,-0.305,-0.3009,-0.2986,-0.2983,-0.2877,-0.2842,-0.2674,-0.2654,-0.2639,-0.2923,-0.2923,-0.2923,0,-0.2461,-0.2593,-0.2657,-0.2695,-0.2823,-0.2856,-0.2915,-0.299,-0.3023,-0.3096,-0.3102,-0.3138,-0.3111,-0.3109,-0.303,-0.3046,-0.2985,-0.3003,-0.2885,-0.2876,-0.2742,-0.272,-0.2704,-0.2991,-0.2991,-0.2991,-0.2991,0,-0.245,-0.2496,-0.2633,-0.2663,-0.273,-0.2829,-0.2887,-0.2952,-0.3027,-0.3036,-0.3107,-0.3088,-0.3116,-0.3076,-0.3047,-0.2939,-0.299,-0.2883,-0.286,-0.2756,-0.2738,-0.2699,-0.272,-0.2989,-0.2989,-0.299,-0.299,0,-0.2359,-0.2457,-0.2529,-0.2662,-0.2699,-0.2738,-0.2846,-0.2871,-0.2963,-0.2971,-0.2983,-0.3028,-0.298,-0.2984,-0.2951,-0.2908,-0.28,-0.281,-0.2662,-0.2624,-0.2519,-0.2548,-0.2471,-0.2406,-0.2691,-0.2688,-0.2686,0,-0.2326,-0.2355,-0.2486,-0.2512,-0.2565,-0.2643,-0.2672,-0.2806,-0.2817,-0.2894,-0.286,-0.2866,-0.2818,-0.2753,-0.2718,-0.2669,-0.2665,-0.2505,-0.2524,-0.2487,-0.2505,-0.2518,-0.2471,-0.2361,-0.2356,-0.2353,-0.235,0,-0.2235,-0.2277,-0.2327,-0.2387,-0.2424,-0.2467,-0.252,-0.2528,-0.264,-0.2652,-0.263,-0.2625,-0.2598,-0.2505,-0.2469,-0.242,-0.2439,-0.2425,-0.2437,-0.2282,-0.2246,-0.2179,-0.2415,-0.2316,-0.2319,-0.2322,-0.2323,-0.2325,-0.2134,-0.2142,-0.2199,-0.2238,-0.2269,-0.2249,-0.2222,-0.2273,-0.2273,-0.2266,-0.2352,-0.2324,-0.2323,-0.227,-0.2229,-0.2122,-0.2199,-0.2065,-0.211,-0.2134,-0.2053,-0.2194,-0.2048,-0.205,-0.2051,-0.2052,-0.2054,0,-0.2002,-0.202,-0.2045,-0.2063,-0.2006,-0.2088,-0.2074,-0.2017,-0.1948,-0.2014,-0.2005,-0.203,-0.195,-0.1982,-0.1917,-0.1843,-0.1814,-0.1797,-0.1804,-0.1778,-0.193,-0.1898,-0.1651,-0.1651,-0.1651,-0.1651,-0.1651,-0.1652,-0.1929,-0.1899,-0.1916,-0.1792,-0.1784,-0.1661,-0.1615,-0.1573,-0.1593,-0.1579,-0.1645,-0.1758,-0.1807,-0.1897,-0.1792,-0.1704,-0.1685,-0.1603,-0.1665,-0.1803,-0.1833,-0.1861,-0.1837,-0.1582,-0.1582,-0.1429,-0.1428,-0.1427]},{"header":{"parameterUnit":"m.s-1","parameterCategory":2,"la1":30.2991,"la2":30.254,"lo1":-89.0895,"lo2":-89.0444,"dy":0.0017,"dx":0.0017,"nx":28,"ny":28,"refTime":"2025-12-17T03:00:00:Z","depth":"0","parameterNumber":3,"parameterNumberName":"V-component_of_CURRENTS"},"data":[0,0,0,0,0,0,0,0,0,0,0,0,0,0,0,0,0,0,0,0,0,0,0,0,0,0,0,0,0,0,0,0,0,0,0,0,0,0,0,0,0,0,0,0,0,0,0,0,0,0,0,0,0,0,0,0,0,0,-0.0356,-0.0355,0,-0.0285,-0.0284,-0.0283,-0.0225,-0.0224,-0.0224,-0.0223,-0.0117,-0.0115,-0.0112,0,0,0,0,0,0,0,0,0,0,0,0,0,-0.0357,-0.0358,-0.0356,-0.0355,-0.0354,-0.0285,-0.0284,-0.0283,-0.0225,-0.0224,-0.0224,-0.0223,-0.0118,-0.0115,-0.0112,0,0,0,0,0,0,0,0,0,0,0,0,0,-0.0329,-0.0359,-0.0356,-0.0317,-0.0313,-0.0285,-0.0284,-0.0282,-0.0225,-0.0224,-0.0223,-0.0223,-0.0118,-0.0115,-0.0112,-0.0108,0,0,-0.0101,-0.01,0,0,0,0,0,0,0,0,-0.0331,-0.0329,-0.0324,-0.032,-0.0315,-0.0263,-0.0245,-0.0222,-0.0225,-0.0258,-0.0223,-0.0222,-0.0163,-0.0156,-0.0145,-0.0103,-0.0099,-0.0101,-0.0099,-0.0097,-0.0096,0,0,0,0,0,0,0,-0.0333,-0.0331,-0.0328,-0.0323,-0.0318,-0.0274,-0.027,-0.024,-0.0216,-0.0255,-0.0251,-0.0244,-0.016,-0.0148,-0.0142,-0.0097,-0.0101,-0.0098,-0.0096,-0.0095,-0.0,0.0,0,0,0,0,0,0,-0.0347,-0.0334,-0.033,-0.0326,-0.0321,-0.0275,-0.027,-0.028,-0.0217,-0.0207,-0.0244,-0.0241,-0.0155,-0.0146,-0.0138,-0.0102,-0.0097,-0.0094,-0.0092,-0.0001,-0.0,0.0,0,0,0,0,0,0,-0.0348,-0.0349,-0.0333,-0.0326,-0.0321,-0.0277,-0.0288,-0.0279,-0.0264,-0.0209,-0.0198,-0.0237,-0.0154,-0.0143,-0.0107,-0.0098,-0.0093,-0.009,-0.0001,-0.0001,0.0,-0.0048,0,0,0,0,0,0,-0.0349,-0.035,-0.0359,-0.0329,-0.0322,-0.0319,-0.0289,-0.0279,-0.0261,-0.0256,-0.0199,-0.0188,-0.0152,-0.0112,-0.0104,-0.0094,-0.0087,-0.0002,-0.0001,-0.0,-0.0047,-0.0049,-0.0051,0,0,0,0,0,-0.0349,-0.0372,-0.036,-0.0359,-0.0338,-0.032,-0.0313,-0.0276,-0.0262,-0.0259,-0.0217,-0.019,-0.01,-0.011,-0.0099,-0.0088,-0.0002,-0.0001,-0.0,-0.0046,-0.0049,-0.0051,0,0,0,0,0,0,-0.0376,-0.0367,-0.0354,-0.0372,-0.0347,-0.031,-0.0306,-0.0282,-0.0248,-0.0244,-0.019,-0.0177,-0.014,-0.011,-0.0122,-0.0057,-0.0044,-0.0041,-0.0083,-0.0085,-0.0087,-0.0101,-0.0084,0,0,0,0,0,-0.0388,-0.0403,-0.0377,-0.0389,-0.0383,-0.0345,-0.0332,-0.0311,-0.0278,-0.0262,-0.022,-0.0174,-0.0129,-0.0105,-0.0067,-0.0038,-0.0009,-0.0021,-0.0023,-0.0025,-0.0028,0.0013,0.0014,0.0004,0.0004,0.0004,0,0,-0.0401,-0.0397,-0.0404,-0.0395,-0.0375,-0.037,-0.0335,-0.0325,-0.031,-0.0257,-0.0226,-0.0183,-0.0124,-0.0087,-0.0067,-0.0059,-0.0004,-0.0023,-0.0026,-0.0028,0.0014,0.0015,0.0016,0.0004,0.0004,0.0004,0,0,-0.0438,-0.0433,-0.0457,-0.0442,-0.042,-0.0392,-0.0393,-0.0358,-0.0332,-0.0303,-0.0253,-0.0207,-0.015,-0.0099,-0.0066,-0.0056,-0.0019,-0.0042,-0.006,-0.002,-0.002,-0.0019,0.0023,0.0028,-0.004,-0.004,-0.004,0,-0.0452,-0.0481,-0.0457,-0.047,-0.0458,-0.0407,-0.0417,-0.0383,-0.0337,-0.0316,-0.03,-0.0201,-0.0152,-0.0092,-0.0083,-0.006,-0.0036,-0.0059,-0.0025,-0.0023,-0.0021,0.0022,0.0028,-0.0042,-0.0042,-0.0042,-0.0042,0,-0.0503,-0.0519,-0.0531,-0.0528,-0.0509,-0.0511,-0.0461,-0.0436,-0.0398,-0.036,-0.0302,-0.0233,-0.0174,-0.0145,-0.0109,-0.0063,-0.0049,-0.0037,-0.0025,-0.0023,0.0022,0.003,-0.0046,-0.0045,-0.0044,-0.0044,0,0,-0.055,-0.0567,-0.0568,-0.058,-0.0542,-0.0536,-0.0502,-0.046,-0.0442,-0.038,-0.035,-0.0259,-0.0223,-0.0183,-0.0127,-0.0083,-0.004,-0.0059,-0.0056,-0.0028,0.0046,0.0091,0.0104,-0.0029,-0.0028,-0.0027,0.0073,0,-0.0594,-0.0648,-0.0625,-0.0647,-0.0667,-0.0602,-0.0576,-0.0525,-0.047,-0.0427,-0.0338,-0.0291,-0.0235,-0.021,-0.0156,-0.0069,-0.0024,-0.0069,0.005,0.0053,0.0085,0.0113,0.0137,0.0231,0.008,0.0082,0.0082,0,-0.0646,-0.0677,-0.0723,-0.0722,-0.0721,-0.0713,-0.0661,-0.0631,-0.0544,-0.0502,-0.043,-0.0363,-0.0269,-0.0238,-0.0089,-0.0123,-0.0047,0.002,0.0025,0.0088,0.0113,0.0207,0.025,0.0407,0.0094,0.0093,0.0092,0,-0.0707,-0.0736,-0.0779,-0.0779,-0.0768,-0.076,-0.0736,-0.0661,-0.0638,-0.055,-0.0525,-0.0408,-0.0351,-0.0238,-0.0084,-0.0093,0.007,0.0077,0.0192,0.0196,0.0252,0.0259,0.0453,0.0167,0.0167,0.0167,0.0166,0,-0.0767,-0.0797,-0.0817,-0.0844,-0.0879,-0.0832,-0.0835,-0.079,-0.0724,-0.0698,-0.0576,-0.0526,-0.0353,-0.023,-0.0101,0.008,0.0062,0.0199,0.0229,0.0237,0.0242,0.0409,0.0459,0.017,0.017,0.0169,0.0168,0,-0.083,-0.0842,-0.09,-0.0914,-0.0917,-0.0942,-0.0919,-0.0912,-0.0837,-0.0797,-0.0773,-0.0616,-0.0444,-0.0258,-0.0061,0.0061,0.0319,0.0287,0.029,0.0319,0.0568,0.0612,0.081,0.0885,0.043,0.0432,0.0434,0,-0.0872,-0.0912,-0.0969,-0.1005,-0.1016,-0.1038,-0.1044,-0.0983,-0.0963,-0.0845,-0.0828,-0.0657,-0.0517,-0.0194,0.0049,0.0298,0.0401,0.0456,0.045,0.0601,0.0673,0.0698,0.0748,0.0508,0.051,0.0511,0.0513,0,-0.0949,-0.0968,-0.1018,-0.1102,-0.1134,-0.1156,-0.1154,-0.1157,-0.1064,-0.1009,-0.0892,-0.0772,-0.0443,-0.0137,0.0193,0.0342,0.0567,0.0496,0.0656,0.0759,0.0795,0.0875,0.0422,0.0527,0.0526,0.0525,0.0524,0.0523,-0.0993,-0.1058,-0.1124,-0.1192,-0.1227,-0.1243,-0.1248,-0.1223,-0.1184,-0.1066,-0.0951,-0.0737,-0.0293,0.0186,0.0364,0.0751,0.0704,0.0862,0.0906,0.0921,0.0993,0.0575,0.0709,0.0709,0.0709,0.0708,0.0708,0,-0.105,-0.1118,-0.1201,-0.1267,-0.1294,-0.1296,-0.129,-0.1263,-0.1208,-0.1084,-0.0945,-0.0465,-0.0016,0.0398,0.0941,0.1152,0.1183,0.1255,0.1304,0.1336,0.0982,0.0987,0.1183,0.1183,0.1183,0.1182,0.1182,0.1182,-0.1079,-0.1182,-0.1232,-0.1299,-0.1324,-0.133,-0.1316,-0.1272,-0.1177,-0.0942,-0.0685,-0.0488,0.0134,0.1001,0.1507,0.1551,0.1708,0.169,0.178,0.1547,0.1513,0.1482,0.1502,0.1803,0.1804,0.2117,0.212,0.2123]}],[{"header":{"parameterUnit":"m.s-1","parameterCategory":2,"la1":30.2991,"la2":30.254,"lo1":-89.0895,"lo2":-89.0444,"dy":0.0017,"dx":0.0017,"nx":28,"ny":28,"refTime":"2025-12-17T03:00:00:Z","depth":"2","parameterNumber":2,"parameterNumberName":"U-component_of_CURRENTS"},"data":[0,0,0,0,0,0,0,0,0,0,0,0,0,0,0,0,0,0,0,0,0,0,0,0,0,0,0,0,0,0,0,0,0,0,0,0,0,0,0,0,0,0,0,0,0,0,0,0,0,0,0,0,0,0,0,0,0,0,-0.2082,-0.2083,0,-0.2156,-0.2157,-0.2157,-0.2142,-0.2141,-0.214,-0.2139,-0.2175,-0.2177,-0.2179,0,0,0,0,0,0,0,0,0,0,0,0,0,-0.1992,-0.1993,-0.2082,-0.2083,-0.2084,-0.2156,-0.2157,-0.2158,-0.2142,-0.2141,-0.2139,-0.2138,-0.2174,-0.2177,-0.2179,0,0,0,0,0,0,0,0,0,0,0,0,0,-0.2044,-0.1993,-0.2081,-0.2086,-0.2087,-0.2156,-0.2157,-0.2158,-0.2143,-0.2141,-0.2139,-0.2137,-0.2173,-0.2176,-0.218,-0.2237,0,0,-0.2189,-0.2191,0,0,0,0,0,0,0,0,-0.2041,-0.2047,-0.2084,-0.2086,-0.2087,-0.2139,-0.2138,-0.2183,-0.2143,-0.212,-0.2138,-0.2136,-0.2161,-0.2166,-0.2183,-0.2239,-0.224,-0.219,-0.2192,-0.2193,-0.2194,0,0,0,0,0,0,0,-0.2037,-0.2044,-0.211,-0.2085,-0.2087,-0.2106,-0.2111,-0.2147,-0.2149,-0.2122,-0.2122,-0.2132,-0.2161,-0.218,-0.2183,-0.2241,-0.219,-0.2192,-0.2194,-0.2196,-0.2304,-0.2305,0,0,0,0,0,0,-0.2029,-0.204,-0.2108,-0.2112,-0.206,-0.2109,-0.2114,-0.2123,-0.2149,-0.2152,-0.2134,-0.2131,-0.2175,-0.218,-0.2184,-0.2252,-0.2193,-0.2196,-0.2198,-0.2303,-0.2304,-0.2305,0,0,0,0,0,0,-0.2027,-0.2034,-0.2105,-0.2079,-0.2089,-0.2112,-0.2123,-0.2126,-0.2149,-0.2159,-0.216,-0.2154,-0.2174,-0.218,-0.2208,-0.2253,-0.2197,-0.22,-0.2302,-0.2303,-0.2305,-0.2388,0,0,0,0,0,0,-0.2024,-0.2033,-0.2045,-0.2078,-0.209,-0.2148,-0.2125,-0.2129,-0.2158,-0.2156,-0.2177,-0.2178,-0.2173,-0.2203,-0.2211,-0.2256,-0.2203,-0.2301,-0.2303,-0.2304,-0.2385,-0.2393,-0.24,0,0,0,0,0,-0.202,-0.2042,-0.2045,-0.2054,-0.2103,-0.2149,-0.2158,-0.2167,-0.2161,-0.2179,-0.2181,-0.2178,-0.2219,-0.2207,-0.2216,-0.2263,-0.23,-0.2302,-0.2304,-0.2381,-0.2391,-0.2399,0,0,0,0,0,0,-0.2007,-0.2044,-0.2047,-0.2078,-0.2112,-0.2147,-0.2167,-0.2181,-0.2202,-0.2195,-0.2198,-0.22,-0.2243,-0.2237,-0.2223,-0.2295,-0.2258,-0.2262,-0.2313,-0.2323,-0.233,-0.232,-0.2205,0,0,0,0,0,-0.2012,-0.2036,-0.2073,-0.2098,-0.2114,-0.2146,-0.2169,-0.218,-0.2201,-0.2209,-0.2229,-0.224,-0.2263,-0.2276,-0.2294,-0.2343,-0.2317,-0.2374,-0.2381,-0.2388,-0.2383,-0.2391,-0.2399,-0.2312,-0.2312,-0.2312,0,0,-0.2012,-0.2038,-0.2049,-0.2098,-0.212,-0.2163,-0.2154,-0.2192,-0.2231,-0.2212,-0.2266,-0.2276,-0.228,-0.2326,-0.2345,-0.2325,-0.2397,-0.2391,-0.2397,-0.2388,-0.2394,-0.2402,-0.241,-0.2314,-0.2314,-0.2313,0,0,-0.2032,-0.2047,-0.2077,-0.2113,-0.2158,-0.218,-0.2196,-0.2244,-0.2262,-0.2316,-0.2309,-0.2334,-0.2382,-0.239,-0.2399,-0.246,-0.2439,-0.2475,-0.2511,-0.2519,-0.2526,-0.2532,-0.2501,-0.2503,-0.2477,-0.2477,-0.2477,0,-0.2032,-0.2075,-0.2095,-0.214,-0.217,-0.2191,-0.2235,-0.227,-0.2324,-0.2342,-0.2335,-0.2404,-0.241,-0.246,-0.2474,-0.248,-0.2466,-0.2481,-0.253,-0.2535,-0.254,-0.2506,-0.2508,-0.2481,-0.2481,-0.248,-0.248,0,-0.2075,-0.2118,-0.2139,-0.2199,-0.2235,-0.2275,-0.2321,-0.2359,-0.2384,-0.2413,-0.2472,-0.2486,-0.2511,-0.2536,-0.2525,-0.2575,-0.2546,-0.2543,-0.2509,-0.2554,-0.2515,-0.2515,-0.2487,-0.2486,-0.2485,-0.2484,0,0,-0.2043,-0.2149,-0.2155,-0.2195,-0.2267,-0.2298,-0.2362,-0.2418,-0.2453,-0.2506,-0.2554,-0.26,-0.2596,-0.2604,-0.261,-0.2627,-0.2646,-0.2603,-0.2601,-0.2575,-0.2641,-0.2564,-0.2557,-0.2661,-0.2662,-0.2662,-0.2596,0,-0.2068,-0.2154,-0.2204,-0.2282,-0.2326,-0.2371,-0.2433,-0.2484,-0.2519,-0.2572,-0.2596,-0.2642,-0.2628,-0.2647,-0.2661,-0.2654,-0.2653,-0.2662,-0.2597,-0.2594,-0.2525,-0.2557,-0.2358,-0.2278,-0.2596,-0.2596,-0.2596,0,-0.2085,-0.2144,-0.2224,-0.2326,-0.2347,-0.2398,-0.2468,-0.253,-0.2598,-0.2627,-0.2665,-0.2682,-0.2713,-0.2699,-0.2693,-0.2703,-0.2669,-0.2662,-0.2659,-0.2557,-0.2519,-0.2286,-0.2266,-0.2596,-0.2596,-0.2596,-0.2596,0,-0.2033,-0.2151,-0.2211,-0.2247,-0.2367,-0.2404,-0.246,-0.2536,-0.2571,-0.2655,-0.2671,-0.2722,-0.2722,-0.2727,-0.2683,-0.2697,-0.2665,-0.2674,-0.257,-0.2562,-0.2361,-0.2334,-0.2663,-0.2663,-0.2663,-0.2663,-0.2663,0,-0.2029,-0.2075,-0.2193,-0.2225,-0.2291,-0.2384,-0.2445,-0.2509,-0.2582,-0.2604,-0.2682,-0.2688,-0.273,-0.2711,-0.2693,-0.2613,-0.2657,-0.257,-0.2548,-0.2382,-0.236,-0.2612,-0.2607,-0.2661,-0.2661,-0.2662,-0.2662,0,-0.196,-0.2043,-0.2115,-0.2237,-0.2271,-0.2313,-0.2411,-0.244,-0.2532,-0.2559,-0.2581,-0.2641,-0.2627,-0.264,-0.2629,-0.2586,-0.2554,-0.251,-0.2295,-0.2249,-0.2443,-0.2443,-0.2401,-0.2398,-0.2396,-0.2394,-0.2392,0,-0.1932,-0.1968,-0.2088,-0.2113,-0.2165,-0.2239,-0.2274,-0.2391,-0.2407,-0.2504,-0.2488,-0.252,-0.2496,-0.2458,-0.2424,-0.2378,-0.2452,-0.2153,-0.2153,-0.2438,-0.242,-0.2424,-0.2428,-0.1906,-0.1901,-0.1896,-0.1892,0,-0.1866,-0.1911,-0.1958,-0.2014,-0.2054,-0.21,-0.2156,-0.2163,-0.2278,-0.2302,-0.231,-0.232,-0.2309,-0.2185,-0.2147,-0.2095,-0.216,-0.2058,-0.2401,-0.2018,-0.197,-0.1953,-0.1973,-0.1851,-0.1855,-0.1858,-0.186,-0.1862,-0.1793,-0.1799,-0.1853,-0.1891,-0.193,-0.1929,-0.191,-0.1964,-0.1973,-0.1981,-0.2072,-0.2029,-0.2037,-0.1896,-0.1813,-0.1759,-0.1918,-0.1822,-0.1836,-0.1855,-0.1825,-0.1777,-0.1613,-0.1615,-0.1618,-0.162,-0.1622,0,-0.1682,-0.1698,-0.1722,-0.1746,-0.1715,-0.179,-0.1796,-0.1747,-0.1703,-0.1747,-0.1745,-0.1584,-0.1513,-0.1541,-0.1408,-0.1394,-0.1386,-0.1321,-0.1303,-0.1343,-0.1379,-0.1327,-0.0981,-0.0979,-0.0978,-0.0976,0,0,-0.1623,-0.1594,-0.1604,-0.1518,-0.1527,-0.144,-0.1412,-0.1373,-0.1371,-0.131,-0.1294,-0.1415,-0.1476,-0.1223,-0.1169,-0.1054,-0.1184,-0.0996,-0.1504,-0.152,-0.1554,-0.1657,-0.162,0,0,0,0,0]},{"header":{"parameterUnit":"m.s-1","parameterCategory":2,"la1":30.2991,"la2":30.254,"lo1":-89.0895,"lo2":-89.0444,"dy":0.0017,"dx":0.0017,"nx":28,"ny":28,"refTime":"2025-12-17T03:00:00:Z","depth":"2","parameterNumber":3,"parameterNumberName":"V-component_of_CURRENTS"},"data":[0,0,0,0,0,0,0,0,0,0,0,0,0,0,0,0,0,0,0,0,0,0,0,0,0,0,0,0,0,0,0,0,0,0,0,0,0,0,0,0,0,0,0,0,0,0,0,0,0,0,0,0,0,0,0,0,0,0,-0.0156,-0.0156,0,-0.0097,-0.0096,-0.0096,-0.0049,-0.0048,-0.0048,-0.0047,0.0047,0.0049,0.0051,0,0,0,0,0,0,0,0,0,0,0,0,0,-0.0179,-0.018,-0.0156,-0.0155,-0.0155,-0.0097,-0.0096,-0.0095,-0.0049,-0.0048,-0.0048,-0.0047,0.0046,0.0048,0.0051,0,0,0,0,0,0,0,0,0,0,0,0,0,-0.0151,-0.018,-0.0156,-0.0124,-0.012,-0.0097,-0.0096,-0.0095,-0.0049,-0.0048,-0.0048,-0.0047,0.0045,0.0048,0.0051,0.0054,0,0,0.006,0.0062,0,0,0,0,0,0,0,0,-0.0152,-0.015,-0.0129,-0.0126,-0.0122,-0.0079,-0.007,-0.0043,-0.0049,-0.0077,-0.0047,-0.0046,0.0008,0.0014,0.0022,0.0058,0.0062,0.0061,0.0062,0.0064,0.0065,0,0,0,0,0,0,0,-0.0154,-0.0152,-0.0134,-0.0129,-0.0124,-0.0095,-0.0091,-0.0064,-0.004,-0.0075,-0.0071,-0.0063,0.001,0.0019,0.0024,0.0063,0.0061,0.0063,0.0065,0.0066,0.0146,0.0146,0,0,0,0,0,0,-0.0164,-0.0154,-0.0135,-0.0132,-0.0134,-0.0095,-0.009,-0.0094,-0.0041,-0.0032,-0.0064,-0.0061,0.0013,0.0021,0.0028,0.0052,0.0064,0.0067,0.0068,0.0146,0.0146,0.0146,0,0,0,0,0,0,-0.0165,-0.0163,-0.0138,-0.014,-0.0135,-0.0096,-0.01,-0.0093,-0.0085,-0.0033,-0.0023,-0.0063,0.0014,0.0024,0.0054,0.0055,0.0068,0.0071,0.0145,0.0146,0.0146,0.0088,0,0,0,0,0,0,-0.0166,-0.0164,-0.0172,-0.0141,-0.0135,-0.0129,-0.0101,-0.0093,-0.0081,-0.0077,-0.0029,-0.0019,0.0015,0.0049,0.0057,0.006,0.0073,0.0145,0.0146,0.0146,0.009,0.0087,0.0084,0,0,0,0,0,-0.0167,-0.0185,-0.0173,-0.017,-0.0147,-0.0129,-0.0124,-0.0093,-0.0082,-0.0083,-0.0045,-0.0021,0.0059,0.0052,0.0061,0.0064,0.0145,0.0145,0.0146,0.0091,0.0087,0.0084,0,0,0,0,0,0,-0.0198,-0.018,-0.0167,-0.0178,-0.0156,-0.0121,-0.012,-0.0101,-0.0075,-0.0072,-0.0022,-0.001,0.0017,0.0049,0.004,0.0091,0.0108,0.0111,0.0063,0.006,0.0057,0.0046,0.0075,0,0,0,0,0,-0.021,-0.0218,-0.019,-0.0197,-0.0191,-0.0158,-0.0148,-0.0131,-0.0101,-0.0089,-0.0052,-0.001,0.0026,0.0049,0.0082,0.0105,0.0137,0.0117,0.0114,0.0111,0.011,0.0156,0.0157,0.0149,0.0149,0.0149,0,0,-0.0222,-0.0214,-0.0217,-0.0204,-0.0186,-0.0185,-0.0151,-0.0144,-0.0136,-0.0083,-0.0063,-0.0025,0.0029,0.0058,0.0074,0.0086,0.013,0.0112,0.0109,0.0109,0.0157,0.0158,0.0159,0.0149,0.0149,0.0149,0,0,-0.0258,-0.0246,-0.0268,-0.0255,-0.0236,-0.0212,-0.0214,-0.0183,-0.0162,-0.0141,-0.0095,-0.0054,-0.0007,0.0041,0.0069,0.0071,0.0108,0.008,0.0061,0.0106,0.0107,0.0108,0.0142,0.0147,0.0084,0.0084,0.0084,0,-0.0275,-0.0298,-0.0269,-0.0285,-0.0276,-0.0228,-0.0244,-0.0215,-0.0176,-0.0156,-0.0142,-0.0057,-0.0012,0.0039,0.0044,0.0064,0.0089,0.0066,0.0101,0.0103,0.0105,0.014,0.0146,0.0081,0.0082,0.0082,0.0082,0,-0.0324,-0.0341,-0.0352,-0.0352,-0.0337,-0.0343,-0.0299,-0.0279,-0.0246,-0.0211,-0.0162,-0.0098,-0.0043,-0.002,0.0012,0.0054,0.0065,0.0085,0.0104,0.0102,0.014,0.0147,0.0078,0.0078,0.0079,0.008,0,0,-0.0366,-0.0386,-0.0388,-0.0404,-0.0376,-0.0372,-0.0348,-0.0312,-0.0297,-0.0243,-0.0216,-0.0139,-0.01,-0.0064,-0.0011,0.0035,0.0072,0.006,0.0064,0.0084,0.0161,0.0194,0.0205,0.0092,0.0093,0.0094,0.0178,0,-0.0413,-0.0469,-0.045,-0.0482,-0.0506,-0.0449,-0.0431,-0.0387,-0.0336,-0.0295,-0.0209,-0.0167,-0.0116,-0.0093,-0.0037,0.0046,0.0089,0.0047,0.0169,0.0173,0.0194,0.0214,0.0184,0.0258,0.0185,0.0186,0.0187,0,-0.0465,-0.0498,-0.0551,-0.056,-0.0561,-0.0561,-0.0517,-0.0495,-0.0412,-0.0372,-0.0302,-0.0237,-0.0148,-0.0115,0.0028,-0.0004,0.0069,0.0133,0.0138,0.0195,0.022,0.0252,0.0275,0.02,0.0199,0.0198,0.0197,0,-0.0522,-0.0561,-0.0607,-0.0612,-0.0613,-0.0611,-0.0592,-0.0524,-0.0502,-0.042,-0.0396,-0.0281,-0.0227,-0.0114,0.003,0.0025,0.018,0.0193,0.0292,0.0295,0.0308,0.0311,0.0283,0.0283,0.0283,0.0282,0.0282,0,-0.0582,-0.0618,-0.0644,-0.0674,-0.0715,-0.0678,-0.0687,-0.0647,-0.0584,-0.0559,-0.0446,-0.0399,-0.0226,-0.011,0.0014,0.0182,0.0173,0.0295,0.0324,0.0287,0.0287,0.0268,0.0265,0.0286,0.0285,0.0284,0.0284,0,-0.0643,-0.0658,-0.0724,-0.0748,-0.0754,-0.0782,-0.0766,-0.076,-0.0693,-0.0655,-0.0632,-0.0484,-0.0325,-0.0146,0.0046,0.0161,0.0316,0.0372,0.0314,0.0337,0.04,0.0393,0.0491,0.0493,0.0494,0.0496,0.0497,0,-0.0681,-0.0726,-0.0793,-0.083,-0.0847,-0.0875,-0.0884,-0.0828,-0.0809,-0.0702,-0.0685,-0.0528,-0.0397,-0.0095,0.0128,0.0358,0.0357,0.0456,0.0451,0.0405,0.0424,0.0414,0.0406,0.0442,0.0443,0.0443,0.0444,0,-0.0759,-0.0784,-0.0838,-0.0924,-0.0959,-0.0986,-0.0989,-0.099,-0.0906,-0.0854,-0.0748,-0.0636,-0.0338,-0.0078,0.0223,0.0352,0.0421,0.0475,0.0453,0.0394,0.0366,0.0382,0.0374,0.0448,0.0448,0.0447,0.0447,0.0447,-0.0806,-0.0869,-0.094,-0.1011,-0.105,-0.1072,-0.1081,-0.1057,-0.102,-0.0908,-0.0802,-0.0607,-0.0352,0.0081,0.0293,0.049,0.0488,0.0539,0.0535,0.053,0.051,0.0487,0.0587,0.0587,0.0587,0.0587,0.0588,0,-0.0862,-0.093,-0.1013,-0.1085,-0.112,-0.1124,-0.1124,-0.1097,-0.1046,-0.0928,-0.0797,-0.0505,-0.0205,0.0059,0.0378,0.057,0.0549,0.0594,0.0528,0.0523,0.0518,0.0494,0.0569,0.0569,0.057,0.057,0,0,-0.0893,-0.0992,-0.104,-0.1119,-0.1154,-0.117,-0.1162,-0.1111,-0.102,-0.0891,-0.0741,-0.053,-0.0201,0.002,0.0259,0.0423,0.042,0.0435,0.0431,0.0319,0.0313,0.047,0.0426,0,0,0,0,0]}],[{"header":{"parameterUnit":"m.s-1","parameterCategory":2,"la1":30.2991,"la2":30.254,"lo1":-89.0895,"lo2":-89.0444,"dy":0.0017,"dx":0.0017,"nx":28,"ny":28,"refTime":"2025-12-17T03:00:00:Z","depth":"4","parameterNumber":2,"parameterNumberName":"U-component_of_CURRENTS"},"data":[0,0,0,0,0,0,0,0,0,0,0,0,0,0,0,0,0,0,0,0,0,0,0,0,0,0,0,0,0,0,0,0,0,0,0,0,0,0,0,0,0,0,0,0,0,0,0,0,0,0,0,0,0,0,0,0,0,0,-0.1169,-0.117,0,-0.1197,-0.1197,-0.1198,-0.122,-0.1221,-0.1221,-0.1221,-0.1223,-0.1223,-0.1222,0,0,0,0,0,0,0,0,0,0,0,0,0,-0.1127,-0.1128,-0.1169,-0.117,-0.117,-0.1197,-0.1197,-0.1198,-0.122,-0.1221,-0.1221,-0.1222,-0.1223,-0.1223,-0.1222,0,0,0,0,0,0,0,0,0,0,0,0,0,-0.1147,-0.1128,-0.1169,-0.1186,-0.1188,-0.1197,-0.1197,-0.1198,-0.122,-0.1221,-0.1221,-0.1222,-0.1223,-0.1223,-0.1222,-0.1207,0,0,-0.1221,-0.1221,0,0,0,0,0,0,0,0,-0.1146,-0.1149,-0.1183,-0.1185,-0.1187,-0.1208,-0.1183,-0.12,-0.122,-0.1206,-0.1221,-0.1222,-0.1216,-0.1216,-0.1218,-0.1207,-0.1207,-0.1221,-0.122,-0.122,-0.122,0,0,0,0,0,0,0,-0.1145,-0.1148,-0.1178,-0.1184,-0.1186,-0.119,-0.1193,-0.1187,-0.1205,-0.1207,-0.1209,-0.1215,-0.1217,-0.1218,-0.1218,-0.1207,-0.1221,-0.122,-0.122,-0.122,-0.1309,-0.1312,0,0,0,0,0,0,-0.1145,-0.1146,-0.1178,-0.1179,-0.117,-0.119,-0.1194,-0.1199,-0.1206,-0.1209,-0.1215,-0.1216,-0.1219,-0.1219,-0.1218,-0.127,-0.122,-0.122,-0.122,-0.1307,-0.131,-0.1313,0,0,0,0,0,0,-0.1144,-0.1147,-0.1177,-0.1165,-0.1169,-0.1191,-0.1196,-0.1199,-0.1224,-0.1213,-0.1214,-0.1239,-0.1219,-0.1219,-0.1244,-0.1267,-0.122,-0.1219,-0.1303,-0.1308,-0.1311,-0.1329,0,0,0,0,0,0,-0.1143,-0.1147,-0.1159,-0.1165,-0.117,-0.12,-0.1196,-0.1199,-0.1226,-0.1229,-0.1233,-0.1233,-0.122,-0.1245,-0.1243,-0.1266,-0.1219,-0.13,-0.1305,-0.131,-0.1325,-0.1333,-0.134,0,0,0,0,0,-0.1141,-0.1151,-0.116,-0.1164,-0.1184,-0.1201,-0.1204,-0.1219,-0.1227,-0.1243,-0.1254,-0.1234,-0.1277,-0.1246,-0.1244,-0.1267,-0.1298,-0.1304,-0.131,-0.1321,-0.1331,-0.1339,0,0,0,0,0,0,-0.1137,-0.1154,-0.1164,-0.1179,-0.1199,-0.1206,-0.1221,-0.1233,-0.1254,-0.126,-0.1251,-0.1252,-0.1284,-0.1285,-0.1251,-0.1316,-0.1291,-0.1296,-0.1301,-0.131,-0.1317,-0.1323,-0.1218,0,0,0,0,0,-0.1142,-0.1157,-0.1174,-0.1189,-0.12,-0.1216,-0.1228,-0.1241,-0.1255,-0.1266,-0.1275,-0.1292,-0.1304,-0.1314,-0.1323,-0.1348,-0.1355,-0.1372,-0.138,-0.1385,-0.1395,-0.1403,-0.141,-0.1332,-0.1332,-0.1332,0,0,-0.1147,-0.1157,-0.1168,-0.1191,-0.1204,-0.1225,-0.1225,-0.125,-0.1274,-0.1261,-0.1302,-0.131,-0.1318,-0.1348,-0.1364,-0.1352,-0.1423,-0.1393,-0.1397,-0.1404,-0.1409,-0.1416,-0.1423,-0.1336,-0.1336,-0.1335,0,0,-0.1154,-0.1171,-0.1187,-0.1203,-0.123,-0.1244,-0.1259,-0.1284,-0.1305,-0.1341,-0.1342,-0.1369,-0.1395,-0.1401,-0.1407,-0.1466,-0.1458,-0.1485,-0.1523,-0.153,-0.1535,-0.154,-0.1593,-0.1602,-0.1492,-0.1492,-0.1492,0,-0.1165,-0.1176,-0.1195,-0.1211,-0.1228,-0.1257,-0.1279,-0.1302,-0.1338,-0.1361,-0.1365,-0.1423,-0.1417,-0.1452,-0.1478,-0.1477,-0.15,-0.1476,-0.1535,-0.1539,-0.1543,-0.1597,-0.1606,-0.1493,-0.1493,-0.1493,-0.1493,0,-0.1171,-0.1192,-0.1201,-0.1233,-0.1261,-0.1281,-0.1317,-0.1356,-0.1389,-0.1412,-0.1468,-0.1475,-0.1509,-0.152,-0.1511,-0.1554,-0.157,-0.1533,-0.1498,-0.1551,-0.1606,-0.1616,-0.1496,-0.1495,-0.1495,-0.1494,0,0,-0.1161,-0.12,-0.1205,-0.123,-0.1271,-0.1299,-0.1347,-0.1397,-0.1443,-0.1483,-0.1535,-0.1561,-0.1575,-0.1586,-0.1587,-0.1602,-0.1651,-0.159,-0.1589,-0.1621,-0.1712,-0.1574,-0.1572,-0.1617,-0.1619,-0.1619,-0.1749,0,-0.1162,-0.1197,-0.1215,-0.1265,-0.129,-0.1333,-0.1377,-0.1432,-0.1485,-0.1544,-0.1566,-0.1613,-0.1597,-0.1622,-0.1632,-0.1646,-0.1674,-0.1623,-0.1676,-0.1679,-0.1528,-0.1576,-0.1623,-0.1756,-0.1758,-0.176,-0.1761,0,-0.1152,-0.1182,-0.1223,-0.1291,-0.1307,-0.135,-0.1441,-0.1485,-0.1563,-0.1602,-0.1654,-0.1673,-0.1719,-0.1684,-0.1742,-0.1714,-0.1721,-0.173,-0.1734,-0.1601,-0.1556,-0.1687,-0.1778,-0.1776,-0.1775,-0.1774,-0.1773,0,-0.113,-0.1188,-0.1226,-0.1244,-0.1322,-0.1367,-0.1425,-0.1512,-0.1562,-0.1652,-0.1705,-0.1746,-0.1793,-0.1795,-0.1807,-0.1784,-0.1867,-0.1825,-0.1722,-0.1716,-0.1791,-0.1785,-0.1859,-0.1858,-0.1858,-0.1858,-0.1857,0,-0.1102,-0.1138,-0.1229,-0.1246,-0.131,-0.138,-0.1463,-0.1522,-0.162,-0.1681,-0.1739,-0.1788,-0.182,-0.186,-0.1846,-0.1818,-0.1895,-0.1743,-0.1727,-0.1805,-0.1798,-0.18,-0.1792,-0.1863,-0.1862,-0.1861,-0.186,0,-0.1054,-0.1106,-0.1159,-0.1258,-0.1294,-0.135,-0.1475,-0.1535,-0.1643,-0.173,-0.176,-0.1851,-0.189,-0.1917,-0.1943,-0.187,-0.1851,-0.182,-0.1953,-0.1942,-0.1701,-0.1693,-0.1728,-0.1724,-0.172,-0.1717,-0.1715,0,-0.1021,-0.1045,-0.1154,-0.1192,-0.1238,-0.1336,-0.1395,-0.1522,-0.1588,-0.1747,-0.1774,-0.1865,-0.1899,-0.1854,-0.1874,-0.1853,-0.1809,-0.1815,-0.1706,-0.1701,-0.1683,-0.168,-0.1677,-0.1709,-0.1709,-0.1708,-0.1707,0,-0.0959,-0.1009,-0.1053,-0.1131,-0.1205,-0.1281,-0.1387,-0.1425,-0.157,-0.1688,-0.1729,-0.1735,-0.1784,-0.1769,-0.1768,-0.174,-0.181,-0.1778,-0.1784,-0.1682,-0.1679,-0.1664,-0.1665,-0.1695,-0.1697,-0.1698,-0.1698,0,-0.0914,-0.0927,-0.0993,-0.1057,-0.1148,-0.1206,-0.127,-0.1349,-0.1422,-0.1594,-0.1602,-0.1686,-0.1772,-0.1714,-0.1708,-0.1668,-0.1625,-0.1557,-0.1574,-0.1588,-0.1468,-0.1439,-0.1377,0,0,0,0,0,-0.0867,-0.0872,-0.0916,-0.0983,-0.1076,-0.1124,-0.1254,-0.1324,-0.1468,-0.1452,-0.1521,-0.1542,-0.1533,-0.1573,-0.1497,-0.1636,-0.1632,-0.154,-0.1563,-0.1629,-0.1642,-0.1507,0,0,0,0,0,0,-0.0838,-0.0864,-0.0879,-0.0918,-0.0947,-0.1035,-0.1109,-0.1203,-0.1202,-0.134,-0.1336,-0.1434,-0.1439,-0.1542,-0.1458,-0.1469,-0.1448,-0.159,-0.1586,-0.1621,-0.1633,-0.1644,-0.151,0,0,0,0,0]},{"header":{"parameterUnit":"m.s-1","parameterCategory":2,"la1":30.2991,"la2":30.254,"lo1":-89.0895,"lo2":-89.0444,"dy":0.0017,"dx":0.0017,"nx":28,"ny":28,"refTime":"2025-12-17T03:00:00:Z","depth":"4","parameterNumber":3,"parameterNumberName":"V-component_of_CURRENTS"},"data":[0,0,0,0,0,0,0,0,0,0,0,0,0,0,0,0,0,0,0,0,0,0,0,0,0,0,0,0,0,0,0,0,0,0,0,0,0,0,0,0,0,0,0,0,0,0,0,0,0,0,0,0,0,0,0,0,0,0,-0.0034,-0.0033,0,0.0011,0.0011,0.0012,0.0043,0.0043,0.0043,0.0043,0.0107,0.0108,0.0109,0,0,0,0,0,0,0,0,0,0,0,0,0,-0.0053,-0.0053,-0.0034,-0.0033,-0.0033,0.0011,0.0011,0.0012,0.0042,0.0043,0.0043,0.0043,0.0106,0.0108,0.011,0,0,0,0,0,0,0,0,0,0,0,0,0,-0.003,-0.0053,-0.0034,-0.0012,-0.001,0.001,0.0011,0.0012,0.0042,0.0043,0.0043,0.0043,0.0105,0.0108,0.011,0.0116,0,0,0.0116,0.0117,0,0,0,0,0,0,0,0,-0.0032,-0.003,-0.0016,-0.0014,-0.0011,0.0022,0.0028,0.0048,0.0042,0.0022,0.0043,0.0044,0.008,0.0084,0.0091,0.0119,0.0122,0.0117,0.0118,0.0119,0.012,0,0,0,0,0,0,0,-0.0033,-0.0031,-0.0016,-0.0015,-0.0012,0.0009,0.0012,0.0032,0.0049,0.0024,0.0027,0.0032,0.0081,0.0089,0.0093,0.0123,0.0117,0.0118,0.012,0.0121,0.0156,0.0156,0,0,0,0,0,0,-0.0041,-0.0033,-0.0018,-0.0015,-0.002,0.0009,0.0013,0.0011,0.0048,0.0054,0.0031,0.0033,0.0085,0.009,0.0095,0.0098,0.0119,0.0121,0.0122,0.0157,0.0156,0.0156,0,0,0,0,0,0,-0.0042,-0.0041,-0.002,-0.0022,-0.0018,0.0008,0.0006,0.0011,0.0021,0.0053,0.006,0.0036,0.0085,0.0092,0.0106,0.0101,0.0122,0.0124,0.0157,0.0157,0.0156,0.0109,0,0,0,0,0,0,-0.0043,-0.0041,-0.0044,-0.0023,-0.0018,-0.0015,0.0006,0.0012,0.0024,0.0026,0.006,0.0066,0.0086,0.0103,0.0108,0.0105,0.0126,0.0158,0.0157,0.0156,0.0111,0.0107,0.0103,0,0,0,0,0,-0.0044,-0.0052,-0.0045,-0.0043,-0.0024,-0.0016,-0.0012,0.0009,0.0023,0.0021,0.0043,0.0065,0.0103,0.0104,0.0111,0.0108,0.0158,0.0157,0.0156,0.0113,0.0108,0.0103,0,0,0,0,0,0,-0.0061,-0.0049,-0.0041,-0.0045,-0.0034,-0.0011,-0.0009,0.0007,0.0024,0.0026,0.006,0.0067,0.0075,0.0098,0.0099,0.0116,0.0134,0.0135,0.0099,0.0094,0.0091,0.0088,0.0127,0,0,0,0,0,-0.0067,-0.0071,-0.0055,-0.0058,-0.0055,-0.0032,-0.0024,-0.0013,0.0005,0.0012,0.0038,0.0062,0.0077,0.009,0.0105,0.0118,0.0149,0.0121,0.0117,0.0113,0.0115,0.0151,0.0151,0.0153,0.0153,0.0153,0,0,-0.0074,-0.0068,-0.0069,-0.0062,-0.0051,-0.0058,-0.0027,-0.0023,-0.0026,0.0016,0.0023,0.0046,0.0075,0.0083,0.009,0.0104,0.013,0.0112,0.0109,0.0113,0.0151,0.0151,0.0151,0.0153,0.0153,0.0153,0,0,-0.0097,-0.0086,-0.0101,-0.0097,-0.0088,-0.0076,-0.0077,-0.0057,-0.0045,-0.004,-0.001,0.0012,0.0036,0.006,0.0074,0.006,0.0103,0.0065,0.0051,0.0085,0.0086,0.0086,0.0128,0.0133,0.0069,0.0069,0.0069,0,-0.0108,-0.0124,-0.0103,-0.0119,-0.0119,-0.0088,-0.0107,-0.0092,-0.0069,-0.0059,-0.0047,0.0,0.0024,0.0047,0.0041,0.0052,0.0082,0.0065,0.0081,0.0082,0.0084,0.0126,0.0132,0.0067,0.0067,0.0067,0.0068,0,-0.0142,-0.0157,-0.0165,-0.0176,-0.0174,-0.0183,-0.0165,-0.0156,-0.0136,-0.0115,-0.009,-0.0051,-0.0019,-0.0008,0.0012,0.0036,0.0057,0.0066,0.0092,0.008,0.0126,0.0133,0.0064,0.0064,0.0065,0.0066,0,0,-0.0165,-0.0187,-0.0191,-0.021,-0.0206,-0.0211,-0.0211,-0.0201,-0.0196,-0.0163,-0.0148,-0.011,-0.0073,-0.0054,-0.0016,0.002,0.0056,0.0047,0.005,0.0088,0.0141,0.0132,0.014,0.0068,0.0069,0.0069,0.017,0,-0.0201,-0.0249,-0.0243,-0.0284,-0.0308,-0.0281,-0.0284,-0.0268,-0.024,-0.0217,-0.0159,-0.0135,-0.0095,-0.0077,-0.0034,0.0033,0.0072,0.0028,0.0147,0.0151,0.0144,0.0146,0.0072,0.0175,0.0177,0.0178,0.0179,0,-0.0237,-0.0268,-0.0318,-0.0346,-0.0352,-0.0367,-0.036,-0.0358,-0.0312,-0.0287,-0.0238,-0.0188,-0.0122,-0.0095,0.0027,-0.0001,0.0063,0.0118,0.0123,0.0137,0.0155,0.0189,0.0192,0.0191,0.019,0.0189,0.0188,0,-0.027,-0.0317,-0.036,-0.0371,-0.0395,-0.0407,-0.0411,-0.0381,-0.0377,-0.0325,-0.0309,-0.0221,-0.0177,-0.0081,0.0038,0.0034,0.0171,0.0178,0.0235,0.0236,0.0235,0.0234,0.0255,0.0255,0.0255,0.0254,0.0254,0,-0.0307,-0.0344,-0.0384,-0.0411,-0.046,-0.0453,-0.0481,-0.0465,-0.0436,-0.0428,-0.0347,-0.0312,-0.0173,-0.0075,0.0031,0.0159,0.0169,0.0237,0.026,0.0213,0.0208,0.0241,0.0238,0.0258,0.0257,0.0256,0.0256,0,-0.0335,-0.0359,-0.0421,-0.0466,-0.0482,-0.0517,-0.0541,-0.055,-0.0514,-0.0498,-0.0483,-0.0374,-0.0241,-0.0096,0.0067,0.0143,0.0268,0.0307,0.0256,0.0273,0.0315,0.0308,0.0385,0.0385,0.0386,0.0386,0.0386,0,-0.0352,-0.0387,-0.0467,-0.0509,-0.0535,-0.0582,-0.0608,-0.0594,-0.0595,-0.0531,-0.0521,-0.0398,-0.031,-0.0073,0.0069,0.0274,0.0293,0.0355,0.0329,0.0313,0.0328,0.0321,0.0314,0.0387,0.0387,0.0387,0.0387,0,-0.0388,-0.0418,-0.047,-0.0561,-0.0612,-0.0662,-0.0693,-0.0698,-0.0665,-0.0635,-0.0537,-0.0406,-0.0259,-0.0074,0.0083,0.0225,0.0315,0.036,0.036,0.0336,0.0317,0.0329,0.0322,0.0389,0.0388,0.0388,0.0388,0,-0.0409,-0.0456,-0.0529,-0.0607,-0.0675,-0.0722,-0.0734,-0.0718,-0.0707,-0.0621,-0.0589,-0.0417,-0.0312,-0.01,0.0046,0.0186,0.0216,0.025,0.0256,0.0256,0.0183,0.0137,0.0177,0,0,0,0,0,-0.0429,-0.0488,-0.0567,-0.0653,-0.0719,-0.0753,-0.078,-0.0774,-0.074,-0.0673,-0.0625,-0.048,-0.0247,-0.0144,-0.0004,0.0036,0.0224,0.0202,0.0262,0.0397,0.0395,0.0329,0,0,0,0,0,0,-0.0447,-0.0521,-0.0573,-0.0676,-0.073,-0.0792,-0.0808,-0.0783,-0.0734,-0.0675,-0.0547,-0.046,-0.0233,-0.0324,-0.0005,0.0038,0.009,0.0319,0.0321,0.0398,0.0396,0.0395,0.0326,0,0,0,0,0]}]]